Tracking 19574 objects as of 16-Feb-2019
HD Live streaming from Space Station
objects crossing your sky now

COSMOS 2354

Track COSMOS 2354 now!
10-day predictions
COSMOS 2354 is classified as:


NORAD ID: 25365
Int'l Code: 1998-036C
Perigee: 1,314.0 km
Apogee: 1,878.0 km
Inclination: 82.6 °
Period: 118.0 minutes
Semi major axis: 7967 km
RCS: 0.9905 m2 (medium)
Launch date: June 15, 1998
Source: Commonwealth of Independent States (former USSR) (CIS)
Launch site: PLESETSK MISSILE AND SPACE COMPLEX (PKMTR)

Satellites have a single simultaneous earth-space and space-earth channel.
aabbcc
Your satellite tracking list
Your tracking list is empty




NASA's NSSDC Master Catalog

Two Line Element Set (TLE):
1 25365U 98036C   19046.71772021 -.00000015 +00000-0 -21829-3 0  9997
2 25365 082.5842 131.3139 0353951 105.2291 046.7086 12.20841166921227
Source of the keplerian elements: AFSPC